EXS86PF LGSK-EGBB

Flight info

Callsign EXS86PF
Flight time 3h 24m
Altitude 38000
Route IBIDI UL617 MAKED DCT LONTA UL608 DOLEV DCT MITNO DCT LURID DCT BEDOX DCT NEMAL DCT SIMBA DCT MAMOR DCT INBED DCT BOMBI DCT ADKUV DCT LENDO DCT SOGRI DCT DENUT L610 HEMEL
Aircraft A21N/M-SDE2E3FGHIJ1J3J4J5M1P2RWXYZ/LB1D1

Departure

Time 2026-05-06 17:57
Airport Skiathos Island National Airport (LGSK)

Arrival

Time 2026-05-06 21:21
Airport Birmingham Airport (EGBB)
Time Latitude Longitude Altitude Speed Heading
2026-05-06 17:12 39.17908 23.50245 43 ft 0 kts 290°
2026-05-06 17:48 39.17903 23.50259 45 ft 4 kts 288°
2026-05-06 17:49 39.17896 23.50288 42 ft 3 kts 289°
2026-05-06 17:49 39.17893 23.50317 40 ft 5 kts 242°
2026-05-06 17:49 39.17912 23.50336 42 ft 5 kts 200°
2026-05-06 17:49 39.17917 23.50339 43 ft 2 kts 199°
2026-05-06 17:52 39.17917 23.50338 45 ft 1 kts 199°
2026-05-06 17:53 39.17899 23.50331 45 ft 5 kts 199°
2026-05-06 17:53 39.17862 23.50315 45 ft 7 kts 200°
2026-05-06 17:53 39.17804 23.50289 45 ft 11 kts 200°
2026-05-06 17:53 39.17731 23.50270 45 ft 12 kts 161°
2026-05-06 17:54 39.17674 23.50338 47 ft 11 kts 165°
2026-05-06 17:54 39.17587 23.50314 46 ft 14 kts 199°
2026-05-06 17:54 39.17487 23.50270 45 ft 16 kts 200°
2026-05-06 17:54 39.17374 23.50220 40 ft 18 kts 201°
2026-05-06 17:55 39.17256 23.50166 31 ft 18 kts 201°
2026-05-06 17:55 39.17142 23.50115 26 ft 15 kts 200°
2026-05-06 17:55 39.17055 23.50091 21 ft 8 kts 173°
2026-05-06 17:55 39.17034 23.50090 18 ft 1 kts 222°
2026-05-06 17:56 39.17057 23.50074 21 ft 8 kts 15°
2026-05-06 17:56 39.17130 23.50109 27 ft 14 kts 20°
2026-05-06 17:56 39.17373 23.50195 38 ft 70 kts 12°
2026-05-06 17:56 39.18036 23.50511 53 ft 140 kts 21°
2026-05-06 17:57 39.19046 23.50998 570 ft 162 kts 17°
2026-05-06 17:57 39.20211 23.51068 1332 ft 179 kts 350°
2026-05-06 17:57 39.21495 23.50789 2205 ft 194 kts 354°
2026-05-06 17:57 39.22928 23.50705 3009 ft 223 kts 358°
2026-05-06 17:58 39.24590 23.50654 3736 ft 253 kts 358°
2026-05-06 17:58 39.26414 23.50606 4728 ft 268 kts 357°
2026-05-06 17:58 39.28303 23.50557 5929 ft 273 kts 357°
2026-05-06 17:58 39.30214 23.50508 7148 ft 275 kts 357°
2026-05-06 17:59 39.32143 23.50457 8377 ft 279 kts 358°
2026-05-06 17:59 39.34097 23.50399 9633 ft 282 kts 356°
2026-05-06 17:59 39.36046 23.49890 10617 ft 294 kts 341°
2026-05-06 17:59 39.38011 23.48982 11373 ft 312 kts 339°
2026-05-06 18:00 39.40083 23.47992 12385 ft 320 kts 339°
2026-05-06 18:00 39.42195 23.46999 13525 ft 325 kts 339°
2026-05-06 18:00 39.44337 23.46008 14581 ft 328 kts 339°
2026-05-06 18:00 39.46501 23.45010 15618 ft 332 kts 339°
2026-05-06 18:01 39.48689 23.44004 16653 ft 335 kts 339°
2026-05-06 18:01 39.50902 23.42990 17683 ft 339 kts 339°
2026-05-06 18:01 39.53140 23.41966 18621 ft 344 kts 339°
2026-05-06 18:01 39.55406 23.40929 19473 ft 347 kts 339°
2026-05-06 18:02 39.57699 23.39878 20324 ft 351 kts 339°
2026-05-06 18:02 39.60019 23.38817 21176 ft 355 kts 338°
2026-05-06 18:02 39.62362 23.37736 22018 ft 359 kts 338°
2026-05-06 18:02 39.64725 23.36651 22875 ft 362 kts 339°
2026-05-06 18:03 39.67114 23.35560 23685 ft 366 kts 339°
2026-05-06 18:03 39.69505 23.34464 24362 ft 370 kts 338°
2026-05-06 18:03 39.71940 23.33340 25033 ft 373 kts 338°
2026-05-06 18:03 39.74399 23.32212 25689 ft 377 kts 338°
2026-05-06 18:04 39.76886 23.31077 26334 ft 381 kts 338°
2026-05-06 18:04 39.79400 23.29918 26971 ft 385 kts 338°
2026-05-06 18:04 39.81935 23.28736 27555 ft 388 kts 338°
2026-05-06 18:04 39.84496 23.27549 28136 ft 392 kts 338°
2026-05-06 18:05 39.87084 23.26356 28698 ft 396 kts 338°
2026-05-06 18:05 39.89701 23.25164 29254 ft 400 kts 338°
2026-05-06 18:05 39.92332 23.23958 29793 ft 404 kts 338°
2026-05-06 18:05 39.94992 23.22733 30295 ft 407 kts 338°
2026-05-06 18:06 39.97676 23.21495 30761 ft 410 kts 338°
2026-05-06 18:06 40.00378 23.20244 31217 ft 413 kts 338°
2026-05-06 18:06 40.03051 23.19003 31701 ft 415 kts 338°
2026-05-06 18:06 40.05776 23.17741 32264 ft 414 kts 338°
2026-05-06 18:07 40.08483 23.16482 32903 ft 412 kts 338°
2026-05-06 18:07 40.11175 23.15232 33527 ft 410 kts 338°
2026-05-06 18:07 40.13859 23.13986 34122 ft 408 kts 338°
2026-05-06 18:07 40.16529 23.12745 34585 ft 407 kts 338°
2026-05-06 18:08 40.19194 23.11503 35001 ft 407 kts 338°
2026-05-06 18:08 40.21863 23.10258 35409 ft 407 kts 338°
2026-05-06 18:08 40.24532 23.09010 35797 ft 408 kts 338°
2026-05-06 18:08 40.27202 23.07762 36213 ft 407 kts 338°
2026-05-06 18:09 40.29864 23.06520 36610 ft 407 kts 338°
2026-05-06 18:09 40.32537 23.05270 36989 ft 407 kts 338°
2026-05-06 18:09 40.35206 23.04021 37366 ft 407 kts 338°
2026-05-06 18:09 40.37873 23.02774 37737 ft 407 kts 338°
2026-05-06 18:10 40.40544 23.01521 38020 ft 408 kts 337°
2026-05-06 18:10 40.43219 23.00260 38057 ft 408 kts 338°
2026-05-06 18:10 40.48387 22.97250 38035 ft 405 kts 329°
2026-05-06 18:11 40.53355 22.93738 38027 ft 405 kts 329°
2026-05-06 18:11 40.58288 22.90244 38029 ft 406 kts 329°
2026-05-06 18:12 40.63274 22.86751 38029 ft 405 kts 329°
2026-05-06 18:12 40.68255 22.83260 38026 ft 406 kts 329°
2026-05-06 18:13 40.73238 22.79738 38022 ft 405 kts 329°
2026-05-06 18:13 40.78217 22.76234 38022 ft 405 kts 329°
2026-05-06 18:14 40.83168 22.72746 38029 ft 406 kts 329°
2026-05-06 18:14 40.88143 22.69223 38029 ft 406 kts 329°
2026-05-06 18:15 40.93122 22.65689 38030 ft 406 kts 329°
2026-05-06 18:15 40.98098 22.62154 38026 ft 406 kts 329°
2026-05-06 18:16 41.03080 22.58620 38030 ft 406 kts 329°
2026-05-06 18:16 41.08056 22.55079 38034 ft 406 kts 329°
2026-05-06 18:17 41.12964 22.51465 38034 ft 404 kts 324°
2026-05-06 18:17 41.17425 22.46867 38034 ft 403 kts 319°
2026-05-06 18:18 41.21760 22.42211 38030 ft 403 kts 319°
2026-05-06 18:18 41.26131 22.37530 38024 ft 403 kts 319°
2026-05-06 18:19 41.30501 22.32858 38021 ft 403 kts 319°
2026-05-06 18:19 41.34869 22.28171 38022 ft 403 kts 319°
2026-05-06 18:20 41.39236 22.23480 38016 ft 403 kts 319°
2026-05-06 18:20 41.43598 22.18782 38014 ft 403 kts 319°
2026-05-06 18:21 41.47964 22.14065 38008 ft 403 kts 319°
2026-05-06 18:21 41.52295 22.09391 38006 ft 403 kts 319°
2026-05-06 18:22 41.56655 22.04677 37999 ft 403 kts 319°
2026-05-06 18:22 41.61015 21.99945 37991 ft 403 kts 319°
2026-05-06 18:23 41.65366 21.95218 37989 ft 403 kts 319°
2026-05-06 18:23 41.69728 21.90505 37989 ft 403 kts 319°
2026-05-06 18:24 41.74085 21.85769 37989 ft 403 kts 319°
2026-05-06 18:24 41.78434 21.81017 37992 ft 403 kts 319°
2026-05-06 18:25 41.82784 21.76273 37992 ft 403 kts 318°
2026-05-06 18:25 41.87110 21.71512 37993 ft 402 kts 318°
2026-05-06 18:26 41.91423 21.66743 37995 ft 402 kts 318°
2026-05-06 18:26 41.95727 21.62013 38001 ft 402 kts 318°
2026-05-06 18:27 42.00051 21.57246 37998 ft 402 kts 318°
2026-05-06 18:27 42.04375 21.52465 37987 ft 402 kts 318°
2026-05-06 18:28 42.08704 21.47687 37986 ft 402 kts 318°
2026-05-06 18:28 42.12304 21.43699 37987 ft 402 kts 318°
2026-05-06 18:29 42.16513 21.38740 37995 ft 401 kts 310°
2026-05-06 18:29 42.20162 21.33066 38003 ft 400 kts 308°
2026-05-06 18:30 42.23756 21.27338 38002 ft 400 kts 308°
2026-05-06 18:30 42.27352 21.21612 38013 ft 400 kts 308°
2026-05-06 18:31 42.30955 21.15893 38021 ft 400 kts 308°
2026-05-06 18:31 42.34547 21.10159 38041 ft 399 kts 308°
2026-05-06 18:32 42.38128 21.04437 38040 ft 399 kts 308°
2026-05-06 18:32 42.41712 20.98705 38048 ft 399 kts 308°
2026-05-06 18:33 42.45269 20.92988 38049 ft 399 kts 308°
2026-05-06 18:33 42.48846 20.87238 38050 ft 399 kts 308°
2026-05-06 18:34 42.52425 20.81459 38049 ft 400 kts 308°
2026-05-06 18:34 42.56009 20.75685 38044 ft 399 kts 307°
2026-05-06 18:35 42.59578 20.69917 38042 ft 399 kts 307°
2026-05-06 18:35 42.63145 20.64137 38037 ft 399 kts 307°
2026-05-06 18:36 42.66705 20.58349 38025 ft 399 kts 307°
2026-05-06 18:36 42.70268 20.52546 38024 ft 399 kts 307°
2026-05-06 18:37 42.73835 20.46747 38036 ft 399 kts 307°
2026-05-06 18:37 42.77375 20.40970 38032 ft 397 kts 307°
2026-05-06 18:38 42.80892 20.35213 38029 ft 398 kts 307°
2026-05-06 18:38 42.84665 20.29684 38034 ft 402 kts 316°
2026-05-06 18:39 42.88996 20.24833 38027 ft 403 kts 317°
2026-05-06 18:40 42.95499 20.17584 38031 ft 403 kts 317°
2026-05-06 18:40 42.99834 20.12724 38031 ft 402 kts 316°
2026-05-06 18:41 43.04120 20.07895 38022 ft 397 kts 316°
2026-05-06 18:41 43.08361 20.03116 38027 ft 397 kts 316°
2026-05-06 18:42 43.12636 19.98298 38026 ft 397 kts 316°
2026-05-06 18:42 43.16898 19.93479 38027 ft 397 kts 316°
2026-05-06 18:43 43.21161 19.88642 38030 ft 397 kts 316°
2026-05-06 18:43 43.25419 19.83812 38032 ft 397 kts 316°
2026-05-06 18:44 43.29692 19.78964 38026 ft 399 kts 316°
2026-05-06 18:44 43.33967 19.74070 38025 ft 400 kts 316°
2026-05-06 18:45 43.38236 19.69218 38015 ft 400 kts 316°
2026-05-06 18:45 43.42513 19.64326 38018 ft 400 kts 316°
2026-05-06 18:46 43.46788 19.59428 38012 ft 399 kts 316°
2026-05-06 18:46 43.51053 19.54525 38008 ft 401 kts 315°
2026-05-06 18:47 43.55345 19.49591 38010 ft 402 kts 315°
2026-05-06 18:47 43.59627 19.44665 38006 ft 404 kts 315°
2026-05-06 18:48 43.63935 19.39685 37998 ft 404 kts 315°
2026-05-06 18:48 43.68237 19.34699 37995 ft 403 kts 315°
2026-05-06 18:49 43.72523 19.29752 37999 ft 398 kts 315°
2026-05-06 18:49 43.76783 19.24802 37996 ft 401 kts 314°
2026-05-06 18:50 43.80855 19.19545 37992 ft 400 kts 312°
2026-05-06 18:50 43.84905 19.14243 37986 ft 401 kts 312°
2026-05-06 18:51 43.88945 19.08923 38014 ft 400 kts 312°
2026-05-06 18:51 43.92964 19.03626 37987 ft 397 kts 311°
2026-05-06 18:52 43.96950 18.98370 37987 ft 398 kts 311°
2026-05-06 18:52 44.00979 18.93052 37995 ft 400 kts 311°
2026-05-06 18:53 44.05017 18.87714 37988 ft 400 kts 311°
2026-05-06 18:53 44.09042 18.82377 38002 ft 400 kts 311°
2026-05-06 18:54 44.13065 18.77014 37977 ft 400 kts 311°
2026-05-06 18:54 44.17080 18.71660 37980 ft 400 kts 311°
2026-05-06 18:55 44.21075 18.66334 37983 ft 400 kts 311°
2026-05-06 18:55 44.25095 18.60967 37981 ft 399 kts 311°
2026-05-06 18:56 44.29097 18.55602 37976 ft 399 kts 311°
2026-05-06 18:56 44.33099 18.50234 37954 ft 398 kts 311°
2026-05-06 18:57 44.37067 18.44891 37951 ft 398 kts 311°
2026-05-06 18:57 44.41056 18.39501 37948 ft 399 kts 311°
2026-05-06 18:58 44.45045 18.34109 37950 ft 399 kts 311°
2026-05-06 18:58 44.49029 18.28695 37978 ft 399 kts 311°
2026-05-06 18:59 44.53036 18.23259 37962 ft 401 kts 311°
2026-05-06 18:59 44.57037 18.17825 37954 ft 401 kts 311°
2026-05-06 19:00 44.61051 18.12389 37949 ft 400 kts 310°
2026-05-06 19:00 44.65012 18.06984 37940 ft 400 kts 310°
2026-05-06 19:01 44.68996 18.01516 37950 ft 400 kts 310°
2026-05-06 19:01 44.72979 17.96063 37942 ft 400 kts 310°
2026-05-06 19:02 44.76958 17.90566 37947 ft 403 kts 310°
2026-05-06 19:02 44.80965 17.85000 37938 ft 405 kts 310°
2026-05-06 19:03 44.84993 17.79451 37936 ft 405 kts 310°
2026-05-06 19:03 44.89003 17.73941 37935 ft 405 kts 311°
2026-05-06 19:04 44.93041 17.68385 37934 ft 405 kts 310°
2026-05-06 19:04 44.97059 17.62813 37929 ft 404 kts 310°
2026-05-06 19:05 45.01065 17.57227 37925 ft 405 kts 310°
2026-05-06 19:05 45.05082 17.51605 37935 ft 407 kts 310°
2026-05-06 19:06 45.09120 17.45986 37935 ft 408 kts 311°
2026-05-06 19:06 45.13154 17.40332 37931 ft 408 kts 311°
2026-05-06 19:07 45.17229 17.34786 37923 ft 409 kts 311°
2026-05-06 19:07 45.21347 17.29212 37925 ft 409 kts 311°
2026-05-06 19:08 45.25475 17.23646 37950 ft 409 kts 311°
2026-05-06 19:08 45.29591 17.18021 37937 ft 410 kts 311°
2026-05-06 19:09 45.33696 17.12458 37928 ft 410 kts 311°
2026-05-06 19:09 45.37807 17.06826 37923 ft 410 kts 311°
2026-05-06 19:10 45.41920 17.01192 37927 ft 410 kts 311°
2026-05-06 19:10 45.46027 16.95564 37927 ft 410 kts 311°
2026-05-06 19:11 45.50122 16.89911 37926 ft 410 kts 311°
2026-05-06 19:11 45.54222 16.84257 37922 ft 410 kts 311°
2026-05-06 19:12 45.58315 16.78593 37927 ft 410 kts 311°
2026-05-06 19:12 45.62382 16.72951 37925 ft 410 kts 311°
2026-05-06 19:13 45.66477 16.67284 37921 ft 410 kts 311°
2026-05-06 19:13 45.70575 16.61589 37921 ft 411 kts 311°
2026-05-06 19:14 45.74677 16.55882 37918 ft 411 kts 311°
2026-05-06 19:14 45.78772 16.50151 37928 ft 412 kts 311°
2026-05-06 19:15 45.82882 16.44413 37926 ft 412 kts 311°
2026-05-06 19:15 45.86990 16.38656 37924 ft 412 kts 311°
2026-05-06 19:16 45.91066 16.32935 37927 ft 413 kts 310°
2026-05-06 19:16 45.95173 16.27146 37920 ft 413 kts 310°
2026-05-06 19:17 45.99269 16.21362 37915 ft 412 kts 310°
2026-05-06 19:17 46.03386 16.15610 37924 ft 413 kts 310°
2026-05-06 19:18 46.06815 16.10802 37899 ft 414 kts 310°
2026-05-06 19:18 46.10925 16.04964 37908 ft 414 kts 309°
2026-05-06 19:19 46.15698 15.98171 37899 ft 415 kts 310°
2026-05-06 19:19 46.19141 15.93271 37889 ft 414 kts 309°
2026-05-06 19:20 46.23236 15.87426 37888 ft 414 kts 309°
2026-05-06 19:20 46.27331 15.81635 37887 ft 415 kts 311°
2026-05-06 19:21 46.31554 15.75921 37888 ft 416 kts 310°
2026-05-06 19:21 46.35768 15.70174 37888 ft 416 kts 310°
2026-05-06 19:22 46.39982 15.64421 37877 ft 416 kts 310°
2026-05-06 19:22 46.44200 15.58669 37878 ft 416 kts 311°
2026-05-06 19:23 46.48389 15.52966 37877 ft 416 kts 310°
2026-05-06 19:23 46.52597 15.47214 37884 ft 416 kts 311°
2026-05-06 19:24 46.56818 15.41456 37877 ft 416 kts 310°
2026-05-06 19:24 46.61056 15.35716 37872 ft 417 kts 311°
2026-05-06 19:25 46.65282 15.29929 37872 ft 417 kts 310°
2026-05-06 19:25 46.69503 15.24111 37863 ft 418 kts 310°
2026-05-06 19:26 46.73731 15.18315 37869 ft 418 kts 310°
2026-05-06 19:26 46.77951 15.12490 37861 ft 417 kts 310°
2026-05-06 19:27 46.82149 15.06639 37874 ft 418 kts 310°
2026-05-06 19:27 46.86364 15.00770 37860 ft 418 kts 309°
2026-05-06 19:28 46.90574 14.94895 37855 ft 419 kts 310°
2026-05-06 19:28 46.94790 14.89011 37854 ft 418 kts 309°
2026-05-06 19:29 46.99021 14.83108 37857 ft 422 kts 310°
2026-05-06 19:29 47.03274 14.77151 37852 ft 423 kts 310°
2026-05-06 19:30 47.07493 14.71222 37889 ft 422 kts 309°
2026-05-06 19:30 47.11733 14.65260 37847 ft 422 kts 309°
2026-05-06 19:31 47.15967 14.59285 37843 ft 422 kts 309°
2026-05-06 19:31 47.22359 14.50238 37855 ft 427 kts 309°
2026-05-06 19:32 47.26647 14.44166 37852 ft 428 kts 310°
2026-05-06 19:32 47.30934 14.38077 37833 ft 428 kts 309°
2026-05-06 19:33 47.35214 14.31966 37839 ft 427 kts 309°
2026-05-06 19:33 47.39469 14.25871 37839 ft 426 kts 309°
2026-05-06 19:34 47.43685 14.19838 37812 ft 424 kts 309°
2026-05-06 19:34 47.47906 14.13768 37827 ft 423 kts 309°
2026-05-06 19:35 47.52135 14.07671 37828 ft 424 kts 309°
2026-05-06 19:35 47.56371 14.01567 37811 ft 424 kts 309°
2026-05-06 19:36 47.60586 13.95474 37828 ft 423 kts 309°
2026-05-06 19:36 47.64798 13.89364 37800 ft 425 kts 309°
2026-05-06 19:37 47.69016 13.83212 37802 ft 425 kts 309°
2026-05-06 19:37 47.73197 13.77090 37804 ft 425 kts 309°
2026-05-06 19:38 47.77425 13.70917 37805 ft 426 kts 309°
2026-05-06 19:38 47.81657 13.64750 37809 ft 426 kts 309°
2026-05-06 19:39 47.85874 13.58565 37846 ft 428 kts 309°
2026-05-06 19:39 47.90123 13.52306 37825 ft 430 kts 309°
2026-05-06 19:40 47.94309 13.45965 37834 ft 429 kts 308°
2026-05-06 19:40 47.98473 13.39575 37825 ft 429 kts 308°
2026-05-06 19:41 48.02630 13.33177 37834 ft 429 kts 307°
2026-05-06 19:41 48.06759 13.26753 37838 ft 430 kts 307°
2026-05-06 19:42 48.10921 13.20273 37843 ft 432 kts 308°
2026-05-06 19:42 48.15098 13.13793 37840 ft 432 kts 307°
2026-05-06 19:43 48.19271 13.07299 37835 ft 432 kts 307°
2026-05-06 19:43 48.23513 13.00892 37835 ft 437 kts 313°
2026-05-06 19:44 48.28295 12.95182 37874 ft 439 kts 315°
2026-05-06 19:44 48.33121 12.89424 37862 ft 446 kts 315°
2026-05-06 19:45 48.37969 12.83598 37841 ft 447 kts 315°
2026-05-06 19:45 48.42838 12.77758 37845 ft 447 kts 315°
2026-05-06 19:46 48.47668 12.71940 37832 ft 447 kts 315°
2026-05-06 19:46 48.52587 12.66096 37831 ft 447 kts 315°
2026-05-06 19:47 48.57414 12.60269 37819 ft 445 kts 315°
2026-05-06 19:47 48.62240 12.54419 37852 ft 445 kts 315°
2026-05-06 19:48 48.67083 12.48545 37825 ft 446 kts 314°
2026-05-06 19:48 48.71920 12.42648 37828 ft 446 kts 314°
2026-05-06 19:49 48.76744 12.36729 37827 ft 446 kts 314°
2026-05-06 19:49 48.81563 12.30837 37836 ft 445 kts 315°
2026-05-06 19:50 48.86386 12.24915 37825 ft 445 kts 314°
2026-05-06 19:50 48.88586 12.21680 37815 ft 436 kts 303°
2026-05-06 19:50 48.90326 12.17965 37815 ft 428 kts 295°
2026-05-06 19:51 48.93382 12.10285 37822 ft 426 kts 294°
2026-05-06 19:51 48.96428 12.02551 37824 ft 426 kts 295°
2026-05-06 19:52 48.99507 11.94816 37831 ft 426 kts 295°
2026-05-06 19:52 49.02584 11.87079 37826 ft 427 kts 295°
2026-05-06 19:53 49.05655 11.79322 37819 ft 427 kts 295°
2026-05-06 19:53 49.08710 11.71556 37822 ft 427 kts 295°
2026-05-06 19:54 49.11765 11.63778 37821 ft 427 kts 295°
2026-05-06 19:54 49.14791 11.56051 37843 ft 427 kts 295°
2026-05-06 19:55 49.17847 11.48230 37822 ft 428 kts 295°
2026-05-06 19:55 49.20890 11.40421 37817 ft 427 kts 295°
2026-05-06 19:56 49.23931 11.32614 37816 ft 427 kts 295°
2026-05-06 19:56 49.26963 11.24784 37816 ft 427 kts 295°
2026-05-06 19:57 49.29996 11.16948 37845 ft 427 kts 295°
2026-05-06 19:57 49.32999 11.09150 37828 ft 428 kts 296°
2026-05-06 19:58 49.36016 11.01284 37822 ft 428 kts 295°
2026-05-06 19:58 49.38986 10.93368 37817 ft 426 kts 292°
2026-05-06 19:59 49.41648 10.85233 37820 ft 425 kts 291°
2026-05-06 19:59 49.44273 10.77141 37864 ft 425 kts 291°
2026-05-06 20:00 49.46939 10.68899 37850 ft 430 kts 292°
2026-05-06 20:00 49.49580 10.60710 37818 ft 430 kts 292°
2026-05-06 20:01 49.52227 10.52477 37813 ft 429 kts 292°
2026-05-06 20:01 49.54865 10.44211 37809 ft 429 kts 291°
2026-05-06 20:02 49.57504 10.35941 37848 ft 429 kts 292°
2026-05-06 20:02 49.60135 10.27699 37812 ft 429 kts 292°
2026-05-06 20:03 49.62758 10.19433 37805 ft 429 kts 292°
2026-05-06 20:03 49.65367 10.11161 37799 ft 429 kts 292°
2026-05-06 20:04 49.67980 10.02872 37800 ft 429 kts 292°
2026-05-06 20:04 49.70569 9.94626 37815 ft 429 kts 292°
2026-05-06 20:05 49.73163 9.86310 37795 ft 431 kts 292°
2026-05-06 20:05 49.75771 9.77950 37798 ft 431 kts 292°
2026-05-06 20:06 49.77934 9.70989 37797 ft 431 kts 292°
2026-05-06 20:06 49.80520 9.62634 37804 ft 431 kts 292°
2026-05-06 20:07 49.83114 9.54262 37819 ft 431 kts 292°
2026-05-06 20:07 49.85701 9.45871 37807 ft 432 kts 292°
2026-05-06 20:08 49.88277 9.37452 37810 ft 432 kts 292°
2026-05-06 20:08 49.90850 9.29024 37817 ft 432 kts 292°
2026-05-06 20:09 49.93409 9.20602 37818 ft 432 kts 292°
2026-05-06 20:09 49.95973 9.12155 37838 ft 432 kts 292°
2026-05-06 20:10 49.98524 9.03717 37829 ft 430 kts 292°
2026-05-06 20:10 50.01078 8.95295 37831 ft 430 kts 292°
2026-05-06 20:11 50.03594 8.86919 37836 ft 430 kts 292°
2026-05-06 20:11 50.06036 8.78435 37843 ft 428 kts 287°
2026-05-06 20:12 50.08107 8.69728 37847 ft 428 kts 287°
2026-05-06 20:12 50.10158 8.61014 37856 ft 428 kts 287°
2026-05-06 20:13 50.12211 8.52317 37848 ft 427 kts 287°
2026-05-06 20:13 50.14246 8.43621 37848 ft 427 kts 287°
2026-05-06 20:14 50.16262 8.34975 37850 ft 427 kts 287°
2026-05-06 20:14 50.18279 8.26285 37866 ft 427 kts 287°
2026-05-06 20:15 50.20299 8.17574 37853 ft 427 kts 287°
2026-05-06 20:15 50.22312 8.08828 37851 ft 428 kts 287°
2026-05-06 20:16 50.24321 8.00071 37850 ft 428 kts 287°
2026-05-06 20:16 50.26309 7.91352 37853 ft 428 kts 287°
2026-05-06 20:17 50.28304 7.82576 37870 ft 428 kts 287°
2026-05-06 20:17 50.30297 7.73786 37852 ft 428 kts 287°
2026-05-06 20:18 50.32272 7.65006 37855 ft 428 kts 287°
2026-05-06 20:18 50.34253 7.56215 37864 ft 428 kts 287°
2026-05-06 20:19 50.36225 7.47422 37873 ft 428 kts 287°
2026-05-06 20:19 50.38179 7.38661 37877 ft 428 kts 287°
2026-05-06 20:20 50.40135 7.29849 37849 ft 428 kts 287°
2026-05-06 20:20 50.42091 7.21041 37858 ft 428 kts 287°
2026-05-06 20:21 50.44037 7.12223 37854 ft 427 kts 287°
2026-05-06 20:21 50.45971 7.03415 37863 ft 427 kts 287°
2026-05-06 20:22 50.47896 6.94609 37879 ft 427 kts 287°
2026-05-06 20:22 50.49811 6.85784 37883 ft 426 kts 287°
2026-05-06 20:23 50.51735 6.76980 37876 ft 426 kts 287°
2026-05-06 20:23 50.53687 6.68191 37881 ft 426 kts 287°
2026-05-06 20:24 50.55636 6.59383 37882 ft 426 kts 287°
2026-05-06 20:24 50.57558 6.50638 37888 ft 426 kts 287°
2026-05-06 20:25 50.59490 6.41815 37877 ft 426 kts 287°
2026-05-06 20:25 50.61413 6.32986 37880 ft 427 kts 287°
2026-05-06 20:26 50.63111 6.24032 37887 ft 425 kts 282°
2026-05-06 20:26 50.64488 6.14973 37896 ft 426 kts 281°
2026-05-06 20:27 50.65853 6.05895 37904 ft 426 kts 281°
2026-05-06 20:27 50.67215 5.96832 37914 ft 424 kts 282°
2026-05-06 20:28 50.68556 5.87827 37920 ft 424 kts 282°
2026-05-06 20:28 50.69901 5.78776 37928 ft 424 kts 282°
2026-05-06 20:29 50.71238 5.69718 37927 ft 424 kts 281°
2026-05-06 20:29 50.72575 5.60643 37941 ft 424 kts 281°
2026-05-06 20:30 50.74550 5.47043 37937 ft 423 kts 281°
2026-05-06 20:31 50.75866 5.37963 37940 ft 424 kts 281°
2026-05-06 20:31 50.77160 5.28953 37934 ft 424 kts 281°
2026-05-06 20:32 50.78458 5.19867 37937 ft 424 kts 281°
2026-05-06 20:32 50.79748 5.10793 37941 ft 423 kts 281°
2026-05-06 20:33 50.81453 5.01885 37935 ft 425 kts 294°
2026-05-06 20:33 50.84104 4.93515 37939 ft 425 kts 295°
2026-05-06 20:34 50.86771 4.85174 37943 ft 425 kts 295°
2026-05-06 20:34 50.89405 4.76827 37941 ft 425 kts 295°
2026-05-06 20:35 50.92037 4.68452 37966 ft 425 kts 295°
2026-05-06 20:35 50.94670 4.60045 37967 ft 425 kts 295°
2026-05-06 20:36 50.97292 4.51661 37968 ft 425 kts 295°
2026-05-06 20:36 50.99912 4.43243 37961 ft 425 kts 295°
2026-05-06 20:37 51.02517 4.34830 37964 ft 425 kts 295°
2026-05-06 20:37 51.05117 4.26404 37961 ft 425 kts 295°
2026-05-06 20:38 51.07717 4.17975 37961 ft 425 kts 295°
2026-05-06 20:38 51.10290 4.09581 37961 ft 425 kts 294°
2026-05-06 20:39 51.12872 4.01123 37961 ft 425 kts 294°
2026-05-06 20:39 51.15453 3.92669 37951 ft 425 kts 294°
2026-05-06 20:40 51.18029 3.84193 37951 ft 424 kts 294°
2026-05-06 20:40 51.20599 3.75712 37953 ft 425 kts 294°
2026-05-06 20:41 51.23135 3.67206 37947 ft 424 kts 291°
2026-05-06 20:41 51.24650 3.58191 37953 ft 422 kts 281°
2026-05-06 20:42 51.25835 3.49020 37948 ft 422 kts 281°
2026-05-06 20:42 51.27041 3.39819 37961 ft 422 kts 281°
2026-05-06 20:43 51.28235 3.30613 37969 ft 424 kts 281°
2026-05-06 20:43 51.29413 3.21396 37984 ft 424 kts 281°
2026-05-06 20:44 51.30587 3.12199 37981 ft 422 kts 281°
2026-05-06 20:44 51.31754 3.03009 37983 ft 422 kts 280°
2026-05-06 20:45 51.32913 2.93787 37971 ft 421 kts 280°
2026-05-06 20:45 51.34051 2.84672 37984 ft 420 kts 280°
2026-05-06 20:46 51.35173 2.75579 37958 ft 415 kts 280°
2026-05-06 20:46 51.36301 2.66483 37972 ft 418 kts 281°
2026-05-06 20:47 51.37419 2.57339 37983 ft 417 kts 280°
2026-05-06 20:47 51.38529 2.48215 37983 ft 417 kts 280°
2026-05-06 20:48 51.39640 2.39099 37989 ft 417 kts 280°
2026-05-06 20:48 51.40741 2.29979 37988 ft 417 kts 280°
2026-05-06 20:49 51.41838 2.20832 37997 ft 417 kts 280°
2026-05-06 20:49 51.42946 2.11769 37996 ft 417 kts 280°
2026-05-06 20:50 51.44057 2.02642 37997 ft 418 kts 280°
2026-05-06 20:50 51.45152 1.93489 37996 ft 418 kts 280°
2026-05-06 20:51 51.46227 1.84345 38002 ft 417 kts 280°
2026-05-06 20:51 51.47287 1.75202 38002 ft 417 kts 280°
2026-05-06 20:52 51.48338 1.66050 38000 ft 417 kts 279°
2026-05-06 20:52 51.49384 1.56897 37995 ft 417 kts 279°
2026-05-06 20:53 51.50247 1.49291 38002 ft 417 kts 279°
2026-05-06 20:53 51.51446 1.38637 38009 ft 417 kts 279°
2026-05-06 20:54 51.52466 1.29478 38003 ft 417 kts 279°
2026-05-06 20:54 51.53317 1.21800 38005 ft 417 kts 279°
2026-05-06 20:55 51.54329 1.12630 38001 ft 417 kts 279°
2026-05-06 20:55 51.55332 1.03457 37999 ft 417 kts 279°
2026-05-06 20:56 51.56327 0.94278 38000 ft 418 kts 279°
2026-05-06 20:56 51.57313 0.85127 38029 ft 418 kts 279°
2026-05-06 20:57 51.58290 0.75969 37065 ft 418 kts 279°
2026-05-06 20:57 51.58785 0.71315 36128 ft 423 kts 279°
2026-05-06 20:57 51.59277 0.66660 35489 ft 420 kts 279°
2026-05-06 20:57 51.59760 0.62067 34989 ft 414 kts 279°
2026-05-06 20:58 51.60239 0.57535 34500 ft 408 kts 279°
2026-05-06 20:58 51.60707 0.53062 33993 ft 403 kts 279°
2026-05-06 20:58 51.61168 0.48647 33424 ft 397 kts 279°
2026-05-06 20:58 51.61619 0.44301 32912 ft 390 kts 278°
2026-05-06 20:59 51.62059 0.40028 32419 ft 384 kts 278°
2026-05-06 20:59 51.62497 0.35797 31922 ft 381 kts 278°
2026-05-06 20:59 51.62929 0.31603 31448 ft 379 kts 278°
2026-05-06 20:59 51.63353 0.27437 30961 ft 376 kts 278°
2026-05-06 21:00 51.63774 0.23294 30498 ft 373 kts 278°
2026-05-06 21:00 51.64192 0.19180 30047 ft 370 kts 278°
2026-05-06 21:00 51.64696 0.15130 29493 ft 369 kts 285°
2026-05-06 21:00 51.65641 0.11302 28972 ft 367 kts 292°
2026-05-06 21:01 51.66687 0.07624 28491 ft 364 kts 293°
2026-05-06 21:01 51.67743 0.03937 28017 ft 361 kts 293°
2026-05-06 21:01 51.68784 0.00271 27578 ft 358 kts 293°
2026-05-06 21:01 51.69811 -0.03363 27125 ft 355 kts 293°
2026-05-06 21:02 51.70825 -0.06971 26652 ft 353 kts 293°
2026-05-06 21:02 51.71835 -0.10573 26175 ft 351 kts 293°
2026-05-06 21:02 51.72838 -0.14164 25722 ft 349 kts 293°
2026-05-06 21:02 51.73831 -0.17723 25281 ft 347 kts 293°
2026-05-06 21:03 51.74817 -0.21268 24823 ft 346 kts 293°
2026-05-06 21:03 51.75801 -0.24807 24348 ft 345 kts 293°
2026-05-06 21:03 51.76783 -0.28345 23883 ft 344 kts 293°
2026-05-06 21:03 51.77762 -0.31866 23406 ft 343 kts 293°
2026-05-06 21:04 51.78734 -0.35371 22878 ft 341 kts 293°
2026-05-06 21:04 51.79705 -0.38856 22415 ft 339 kts 295°
2026-05-06 21:04 51.80987 -0.42023 21956 ft 337 kts 313°
2026-05-06 21:04 51.82831 -0.44314 21610 ft 334 kts 327°
2026-05-06 21:05 51.84825 -0.46226 21325 ft 333 kts 328°
2026-05-06 21:05 51.86817 -0.48106 21057 ft 331 kts 328°
2026-05-06 21:05 51.88800 -0.49999 20798 ft 330 kts 328°
2026-05-06 21:05 51.90740 -0.51872 20538 ft 329 kts 328°
2026-05-06 21:06 51.92699 -0.53772 20290 ft 327 kts 328°
2026-05-06 21:06 51.94654 -0.55673 20047 ft 326 kts 328°
2026-05-06 21:06 51.96592 -0.57565 19777 ft 323 kts 328°
2026-05-06 21:06 51.98506 -0.59435 19323 ft 320 kts 328°
2026-05-06 21:07 52.00409 -0.61296 18827 ft 318 kts 328°
2026-05-06 21:07 52.02302 -0.63149 18360 ft 317 kts 328°
2026-05-06 21:07 52.04188 -0.64997 17818 ft 315 kts 328°
2026-05-06 21:07 52.06057 -0.66833 17318 ft 312 kts 328°
2026-05-06 21:08 52.07906 -0.68650 16847 ft 310 kts 328°
2026-05-06 21:08 52.09747 -0.70462 16346 ft 307 kts 328°
2026-05-06 21:08 52.11564 -0.72253 15897 ft 305 kts 328°
2026-05-06 21:08 52.13373 -0.74031 15435 ft 302 kts 328°
2026-05-06 21:09 52.15165 -0.75795 14986 ft 300 kts 328°
2026-05-06 21:09 52.16922 -0.77531 14542 ft 298 kts 328°
2026-05-06 21:09 52.18685 -0.79272 14104 ft 296 kts 328°
2026-05-06 21:09 52.20439 -0.81003 13652 ft 294 kts 328°
2026-05-06 21:10 52.22181 -0.82725 13166 ft 292 kts 328°
2026-05-06 21:10 52.23815 -0.84650 12703 ft 289 kts 316°
2026-05-06 21:10 52.24965 -0.87305 12231 ft 287 kts 295°
2026-05-06 21:10 52.25554 -0.90408 11784 ft 286 kts 283°
2026-05-06 21:11 52.25958 -0.93578 11328 ft 285 kts 282°
2026-05-06 21:11 52.26358 -0.96737 10907 ft 283 kts 283°
2026-05-06 21:11 52.26767 -0.99862 10484 ft 281 kts 283°
2026-05-06 21:11 52.27182 -1.02974 10059 ft 280 kts 283°
2026-05-06 21:12 52.27598 -1.06072 9595 ft 278 kts 283°
2026-05-06 21:12 52.28013 -1.09146 9176 ft 276 kts 283°
2026-05-06 21:12 52.28426 -1.12199 8732 ft 275 kts 283°
2026-05-06 21:12 52.28853 -1.15236 8289 ft 274 kts 284°
2026-05-06 21:13 52.29313 -1.18247 7839 ft 273 kts 284°
2026-05-06 21:13 52.29780 -1.21259 7409 ft 272 kts 284°
2026-05-06 21:13 52.30244 -1.24242 6996 ft 271 kts 284°
2026-05-06 21:13 52.30710 -1.27222 6591 ft 270 kts 284°
2026-05-06 21:14 52.31137 -1.30202 6146 ft 269 kts 278°
2026-05-06 21:14 52.31234 -1.33242 5718 ft 268 kts 271°
2026-05-06 21:14 52.31235 -1.36280 5297 ft 266 kts 271°
2026-05-06 21:14 52.31205 -1.39311 4877 ft 265 kts 270°
2026-05-06 21:15 52.31170 -1.42276 4449 ft 264 kts 270°
2026-05-06 21:15 52.31131 -1.45239 4144 ft 255 kts 270°
2026-05-06 21:15 52.31092 -1.48042 3969 ft 237 kts 270°
2026-05-06 21:15 52.31050 -1.50608 3957 ft 216 kts 270°
2026-05-06 21:16 52.31003 -1.52931 4008 ft 192 kts 270°
2026-05-06 21:16 52.31117 -1.55045 3887 ft 186 kts 291°
2026-05-06 21:16 52.31688 -1.56915 3700 ft 184 kts 300°
2026-05-06 21:16 52.32293 -1.58752 3466 ft 183 kts 300°
2026-05-06 21:17 52.32937 -1.60535 3216 ft 179 kts 310°
2026-05-06 21:17 52.33820 -1.61904 2986 ft 172 kts 323°
2026-05-06 21:17 52.34778 -1.63025 2764 ft 166 kts 328°
2026-05-06 21:17 52.35718 -1.64076 2532 ft 161 kts 328°
2026-05-06 21:18 52.36637 -1.65094 2321 ft 162 kts 328°
2026-05-06 21:18 52.37573 -1.66132 2098 ft 163 kts 329°
2026-05-06 21:18 52.38518 -1.67179 1870 ft 164 kts 329°
2026-05-06 21:18 52.39457 -1.68221 1645 ft 159 kts 329°
2026-05-06 21:19 52.40303 -1.69162 1444 ft 133 kts 329°
2026-05-06 21:19 52.41029 -1.69966 1248 ft 124 kts 329°
2026-05-06 21:19 52.41746 -1.70765 1068 ft 125 kts 329°
2026-05-06 21:19 52.42468 -1.71564 867 ft 125 kts 329°
2026-05-06 21:20 52.43190 -1.72356 694 ft 126 kts 326°
2026-05-06 21:20 52.43912 -1.73175 539 ft 126 kts 328°
2026-05-06 21:20 52.44631 -1.73964 377 ft 126 kts 328°
2026-05-06 21:20 52.45314 -1.74718 327 ft 98 kts 326°
2026-05-06 21:21 52.45714 -1.75164 328 ft 50 kts 325°
2026-05-06 21:21 52.45982 -1.75459 320 ft 37 kts 324°
2026-05-06 21:21 52.46109 -1.75604 315 ft 15 kts 340°
2026-05-06 21:21 52.46193 -1.75526 313 ft 11 kts 59°
2026-05-06 21:22 52.46214 -1.75418 309 ft 11 kts 106°
2026-05-06 21:22 52.46149 -1.75321 309 ft 15 kts 146°
2026-05-06 21:22 52.46048 -1.75210 310 ft 20 kts 146°
2026-05-06 21:22 52.45925 -1.75073 311 ft 23 kts 146°
2026-05-06 21:23 52.45781 -1.74913 315 ft 27 kts 146°
2026-05-06 21:23 52.45628 -1.74744 323 ft 23 kts 146°
2026-05-06 21:23 52.45522 -1.74626 325 ft 16 kts 146°
2026-05-06 21:23 52.45454 -1.74506 327 ft 16 kts 116°
2026-05-06 21:24 52.45399 -1.74323 328 ft 19 kts 116°
2026-05-06 21:24 52.45344 -1.74148 325 ft 15 kts 117°
2026-05-06 21:24 52.45336 -1.74120 329 ft 1 kts 117°
2026-05-06 21:24 52.45327 -1.74092 328 ft 5 kts 116°
2026-05-06 21:25 52.45305 -1.74020 326 ft 9 kts 120°
2026-05-06 21:25 52.45245 -1.73936 329 ft 13 kts 146°
2026-05-06 21:25 52.45163 -1.73845 329 ft 15 kts 145°
2026-05-06 21:25 52.45066 -1.73758 328 ft 15 kts 163°
2026-05-06 21:26 52.44990 -1.73697 329 ft 6 kts 145°
2026-05-06 21:26 52.44985 -1.73626 325 ft 6 kts 62°
2026-05-06 21:26 52.44999 -1.73591 329 ft 2 kts 56°
2026-05-06 21:26 52.45003 -1.73582 326 ft 0 kts 56°
2026-05-06 21:27 52.45004 -1.73580 326 ft 0 kts 56°